Regional Weather Roundup
Issued by NWS

Home | Current Version | Previous Version | Graphics & Text | Print | Product List | Glossary On
Versions: 1 2 3 4 5 6 7 8 9 10 11 12 13 14 15 16 17 18 19 20 21 22 23 24 25 26 27 28 29 30 31 32 33 34 35 36 37 38 39 40 41 42 43 44 45 46 47 48 49 50
000
ASUS45 KBOU 211107
RWRCO

WEATHER ROUNDUP FOR COLORADO
NATIONAL WEATHER SERVICE DENVER/BOULDER CO
500 AM MDT THU AUG 21 2014

NOTE: "FAIR" INDICATES FEW OR NO CLOUDS BELOW 12000 FEET WITH NO
SIGNIFICANT WEATHER AND/OR OBSTRUCTIONS TO VISIBILITY.

COZ001>005-013-030-031-211200-
...NORTHWEST COLORADO...

CITY           SKY/WX    TMP DP  RH WIND       PRES   REMARKS
CRAIG          LGT RAIN  55  52  89 N5        30.20F
HAYDEN         MOCLDY    52  46  82 SE3       30.23R
MEEKER         MOCLDY    55  50  83 CALM      30.20F
MOUNT WERNER   NOT AVBL
STEAMBOAT SPGS CLOUDY    47  46  93 CALM      30.24R
WALDEN         PTCLDY    43  41  93 SE7       30.26S
$$

COZ006>008-011-211200-
...WEST CENTRAL VALLEYS...

CITY           SKY/WX    TMP DP  RH WIND       PRES   REMARKS
GRAND JUNCTION PTCLDY    57  50  77 E5        30.12R
MONTROSE       CLEAR     55  46  71 S6        30.20R
EAGLE          CLOUDY    50  48  93 CALM      30.25R
RIFLE          PTCLDY    55  51  86 SE5       30.16R
DELTA          CLEAR     59  47  64 NE6       30.16R HAZE
NUCLA          CLEAR     54  45  71 NE3       30.23R
$$

COZ017>023-064>068-211200-
...SOUTHWEST COLORADO...

CITY           SKY/WX    TMP DP  RH WIND       PRES   REMARKS
DURANGO        CLEAR     51  40  65 CALM      30.21R
CORTEZ         CLEAR     50  44  80 E5        30.18S
PAGOSA SPRINGS CLEAR     46  39  76 CALM      30.27S
TELLURIDE      CLEAR     46  41  81 E6        30.38S
WOLF CREEK PAS NOT AVBL
$$

COZ009-010-012-014-032>034-037-058>063-211200-
...CENTRAL COLORADO...

CITY           SKY/WX    TMP DP  RH WIND       PRES   REMARKS
ASPEN          PTCLDY    47  42  83 S5        30.28R
BUENA VISTA    CLEAR     54  40  60 NW7       30.26R
COPPER MTN     CLEAR     45  36  70 W12       30.51S
BERTHOUD PASS  FAIR      36  36 100 W21G35    30.52S
COTTONWOOD PAS CLEAR     54  36  50 W14       30.37S
GUNNISON       CLEAR     45  36  70 N3        30.32S
KREMMLING      PTCLDY    50  45  81 CALM      30.27S
LEADVILLE      CLEAR     39  35  86 CALM      30.37F
MONARCH PASS   CLEAR     37  36  93 W26       30.60S
SALIDA         NOT AVBL
SUNLIGHT       PTCLDY    43  41  93 CALM      30.46R
WILKERSON PASS CLEAR     45  36  70 SW7       30.47S
$$

COZ069>075-211200-
...SAN LUIS VALLEY/SANGRE DE CRISTO MOUNTAINS...

CITY           SKY/WX    TMP DP  RH WIND       PRES   REMARKS
ALAMOSA        CLEAR     44  38  79 CALM      30.25R
LA VETA PASS   NOT AVBL
SAGUACHE       CLEAR     52  41  66 NW10      30.28S
$$

COZ035-036-038>040-211200-
...NORTHERN COLORADO FRONT RANGE...

CITY           SKY/WX    TMP DP  RH WIND       PRES   REMARKS
DENVER INTL AP PTCLDY    60  54  80 S10       30.05R
DMNS CITY PARK   N/A     60  56  85 S3        30.06R
AURORA         PTCLDY    58  53  81 S7        30.08R
FRONT RANGE AP NOT AVBL
ERIE MUNI ARPT CLEAR     57  54  92 CALM      30.04R
BOULDER MUN AP CLEAR     59  54  82 CALM      30.04R
CENTENNIAL     CLEAR     59  51  75 S8        30.08S
BROOMFIELD     CLEAR     59  54  82 SW5       30.08R
FORT COLLINS   CLEAR     61  52  72 CALM      30.05R
LONGMONT       CLEAR     58  53  82 CALM      30.05R HAZE
$$

COZ041-046-047-076>085-087-088-211200-
...PIKES PEAK/PALMER DIVIDE AND SOUTHERN FOOTHILLS...

CITY           SKY/WX    TMP DP  RH WIND       PRES   REMARKS
COLO. SPRINGS  PTCLDY    63  48  58 N3        30.12R
A. F. ACADEMY  MOCLDY    56  48  73 N8        30.14R
ELLICOTT       CLEAR     56  52  86 N6        30.10R
FALCON         PTCLDY    60  47  63 N9        30.17R
FORT CARSON    CLEAR     59  50  72 N7        30.09R
LIMON          CLEAR     58  55  90 W7        30.05R
MONUMENT HILL  MOCLDY    52  46  82 W6        30.16R
TRINIDAD       CLEAR     61  45  55 W9        30.10R
$$

COZ042>045-048>051-090-091-211200-
...NORTHEAST COLORADO...

CITY           SKY/WX    TMP DP  RH WIND       PRES   REMARKS
GREELEY ARPT   CLEAR     57  48  72 CALM      30.03S
AKRON          MOCLDY    63  56  78 NW13      29.99R
BURLINGTON     CLEAR     63  56  78 N8        29.94S
WRAY             N/A     67  58  73 N6        29.91F
STERLING       MOCLDY    64  61  88 E5        29.96R
HOLYOKE        NOT AVBL
FORT MORGAN    MOCLDY    60  55  85 W8        30.00R
$$

COZ086-089-092>099-211200-
...SOUTHEAST COLORADO...

CITY           SKY/WX    TMP DP  RH WIND       PRES   REMARKS
PUEBLO         CLEAR     66  51  58 W7        30.01R
LA JUNTA       CLEAR     66  55  67 W7        29.96R
LAMAR          CLEAR     68  55  63 NE9       29.90R
SPRINGFIELD      N/A     64  57  78 SW6       29.95R
$$



USA.gov is the U.S. government's official web portal to all federal, state and local government web resources and services.